Tracking 35334 objects as of 12-Sep-2026
HD Live streaming from Space Station
objects crossing your sky now

COSMOS 1408 DEB


COSMOS 1408 DEB is no longer on orbit


NORAD ID: 49626
Int'l Code: 1982-092DT
Launch date: September 16, 1982
Source: Commonwealth of Independent States (former USSR) (CIS)
Launch site: PLESETSK MISSILE AND SPACE COMPLEX (PKMTR)
Decay date: 2022-11-16

Note: This is SATELLITE DEBRIS
Your satellite tracking list
Your tracking list is empty




NASA's NSSDC Master Catalog

Two Line Element Set (TLE):
1 49626U 82092DT  22319.85686114  .15209985 -12957-5  15551-2 0  9992
2 49626  82.5401 109.4163 0012699 304.6044  55.4055 16.37721027 55911
Source of the keplerian elements: AFSPC